Stations météo

Publicité
Le Havre/Octeville, France (7046): Température de l'air & dewpoint: 22.05.2018 06:00:00 - 28.05.2018 06:00:00 (CEST)Le Havre/Octeville, France (7046): Vitesse du vent & gusts: 22.05.2018 06:00:00 - 28.05.2018 06:00:00 (CEST)Le Havre/Octeville, France (7046): Direction du vent: 22.05.2018 06:00:00 - 28.05.2018 06:00:00 (CEST)Le Havre/Octeville, France (7046): reduced air pressure: 22.05.2018 06:00:00 - 28.05.2018 06:00:00 (CEST)Le Havre/Octeville, France (7046): visibility: 22.05.2018 06:00:00 - 28.05.2018 06:00:00 (CEST)Le Havre/Octeville, France (7046): Quantités de précipitations: 22.05.2018 06:00:00 - 28.05.2018 06:00:00 (CEST)
Date & Time tt [°C] td [°C] ff [km/h] ff [knt] fx [km/h] fx [knt] dd ppp [hPa] vv [km] rr [mm]
28.05.2018 06:00:00 16,8 12,9 13 7 19 11 ENE 1016,4 56 0,0
28.05.2018 05:00:00 16,4 12,2 6 4 12 6 NE 1016,3 60 0,0
28.05.2018 04:00:00 17,6 12,3 10 5 17 9 ENE 1016,1 60 0,0
28.05.2018 03:00:00 18,0 12,0 8 4 13 7 E 1016,2 60 0,0
28.05.2018 02:00:00 18,3 12,7 8 4 14 8 E 1016,2 60 0,0
28.05.2018 01:00:00 19,0 12,7 11 6 18 10 E 1016,5 60 0,0
28.05.2018 00:00:00 18,6 13,2 12 6 18 10 E 1016,5 60 0,0
27.05.2018 23:00:00 18,5 13,4 12 7 22 12 ENE 1016,1 60 0,0
27.05.2018 22:00:00 18,8 14,5 14 8 19 10 ENE 1015,8 60 0,0
27.05.2018 21:00:00 20,2 15,0 10 6 18 10 ENE 1015,1 48 0,0
27.05.2018 20:00:00 21,8 15,4 14 8 22 12 NNE 1015,0 52 0,0
27.05.2018 19:00:00 23,5 15,0 13 7 18 10 N 1014,9 20 0,0
27.05.2018 18:00:00 24,0 14,4 9 5 16 9 NW 1015,0 59 0,0
27.05.2018 17:00:00 23,9 15,4 10 5 16 9 NNW 1015,1 20 0,0
27.05.2018 16:00:00 22,4 15,3 11 6 19 11 N 1015,3 42 0,0
27.05.2018 15:00:00 21,5 15,3 16 8 22 12 NNW 1015,5 39 0,0
27.05.2018 14:00:00 21,2 15,1 12 7 18 10 NW 1015,7 60 0,0
27.05.2018 13:00:00 21,2 16,2 9 5 16 8 NW 1015,7 60 0,0
27.05.2018 12:00:00 22,6 15,7 6 3 18 10 E 1015,6 60 0,0
27.05.2018 11:00:00 20,4 14,1 10 5 18 10 S 1015,8 60 0,0
27.05.2018 10:00:00 19,2 14,5 4 2 13 7 S 1015,7 20 0,0
27.05.2018 09:00:00 17,9 14,6 5 3 12 6 SW 1015,5 20 0,0
27.05.2018 08:00:00 18,3 14,2 4 2 7 4 W 1015,0 56 0,0
27.05.2018 07:00:00 16,0 14,0 6 3 8 5 NNW 1014,7 59 0,0
27.05.2018 06:00:00 16,4 13,5 4 2 8 4 SW 1014,9 60 0,0
27.05.2018 05:00:00 16,8 12,7 4 2 21 11 ENE 1015,0 60 0,0
27.05.2018 04:00:00 18,3 12,5 13 7 51 27 S 1014,9 60 0,0
27.05.2018 03:00:00 17,2 12,3 9 5 16 8 E 1014,1 60 0,0
27.05.2018 02:00:00 18,7 12,4 11 6 26 14 E 1014,4 60 0,0
27.05.2018 01:00:00 19,5 12,5 12 6 24 13 ESE 1014,3 60 0,0
27.05.2018 00:00:00 20,4 11,9 16 9 33 18 ESE 1014,3 60 0,0
26.05.2018 23:00:00 20,4 12,1 17 9 49 26 E 1014,6 20 0,2
26.05.2018 22:00:00 20,5 11,7 28 15 81 44 ESE 1015,1 53 0,8
26.05.2018 21:00:00 24,8 14,0 19 10 40 22 E 1013,2 54 0,0
26.05.2018 20:00:00 26,1 15,8 24 13 42 23 E 1013,2 52 0,0
26.05.2018 19:00:00 27,5 13,4 21 11 35 19 ESE 1012,5 31 0,0
26.05.2018 18:00:00 26,8 15,2 21 11 46 25 SE 1013,1 26 0,0
26.05.2018 17:00:00 27,3 15,0 26 14 46 25 SE 1013,1 20 0,0
26.05.2018 16:00:00 26,9 15,9 25 14 46 25 ESE 1013,1 17 0,0
26.05.2018 15:00:00 26,7 16,0 29 16 52 28 E 1013,0 14 0,0
26.05.2018 14:00:00 26,2 16,4 24 13 42 23 E 1013,4 13 0,0
26.05.2018 13:00:00 24,3 17,8 20 11 35 19 ENE 1014,0 13 0,0
26.05.2018 12:00:00 21,7 17,1 17 9 26 14 NE 1015,0 5 0,0
26.05.2018 11:00:00 19,8 16,1 14 8 24 13 ENE 1015,5 8 0,0
26.05.2018 10:00:00 18,0 16,0 15 8 21 11 ENE 1015,7 5 0,2
26.05.2018 09:00:00 15,7 15,2 13 7 19 10 NE 1015,9 2,1 0,0
26.05.2018 08:00:00 15,2 14,7 11 6 19 10 ENE 1016,0 1,2 0,0
26.05.2018 07:00:00 15,0 14,4 10 5 22 12 ENE 1016,1 0,8 0,0
26.05.2018 06:00:00 15,0 13,9 11 6 16 9 ENE 1016,1 2,2 0,0
26.05.2018 05:00:00 15,2 13,6 6 4 16 8 ENE 1016,3 4,6 0,0
26.05.2018 04:00:00 15,2 14,2 9 5 17 9 ENE 1016,8 3,0 0,0
26.05.2018 03:00:00 14,9 14,1 10 5 17 9 NE 1017,1 2,5 0,2
26.05.2018 02:00:00 14,6 14,0 11 6 17 9 NE 1017,7 2,0 0,0
26.05.2018 01:00:00 15,2 14,4 5 3 13 7 ENE 1017,8 2,1 0,0
26.05.2018 00:00:00 15,3 14,3 5 3 11 6 NE 1017,5 2,0 0,2
25.05.2018 23:00:00 15,7 14,4 8 4 13 7 ENE 1017,7 2,7 0,0
25.05.2018 22:00:00 15,9 14,1 5 3 18 10 E 1017,4 3,5 0,0
25.05.2018 21:00:00 16,5 14,1 10 6 20 11 E 1017,3 6 0,2
25.05.2018 20:00:00 17,1 13,2 14 7 21 11 NE 1017,3 9 0,0
25.05.2018 19:00:00 18,1 14,0 14 8 24 13 NE 1016,6 8 0,0
25.05.2018 18:00:00 19,0 14,5 15 8 23 12 NE 1016,8 9 0,0
25.05.2018 17:00:00 17,9 14,6 15 8 23 12 N 1016,8 5 0,0
25.05.2018 16:00:00 15,1 14,0 19 10 27 14 N 1017,5 2,9 0,0
25.05.2018 15:00:00 14,0 13,4 14 8 22 12 NNW 1018,1 0,3 0,0
25.05.2018 14:00:00 13,5 12,9 13 7 19 10 NNW 1018,2 0,4 0,0
25.05.2018 13:00:00 13,6 13,1 8 5 14 8 WNW 1018,3 0,6 0,0
25.05.2018 12:00:00 13,3 13,0 6 3 10 6 W 1018,5 0,5 0,0
25.05.2018 11:00:00 12,7 12,4 5 3 9 5 W 1018,3 0,2 0,0
25.05.2018 10:00:00 12,9 12,6 2 1 6 3 W 1018,2 0,1 0,0
25.05.2018 09:00:00 12,4 12,1 2 1 6 3 NW 1018,1 0,1 0,0
25.05.2018 08:00:00 11,9 11,6 4 2 8 4 SW 1018,2 0,1 0,0
25.05.2018 07:00:00 11,0 10,7 3 1 7 4 SW 1018,1 0,1 0,0
25.05.2018 06:00:00 10,2 9,9 0 0 5 3 N 1017,8 0,1 0,0
25.05.2018 05:00:00 10,0 9,7 3 2 7 4 WNW 1017,4 0,1 0,0
25.05.2018 04:00:00 10,0 9,5 0 0 6 3 N 1017,5 0,1 0,2
25.05.2018 03:00:00 11,1 10,6 0 0 8 5 N 1017,5 0,1 0,0
25.05.2018 02:00:00 11,4 10,9 4 2 10 6 N 1017,8 0,1 0,0
25.05.2018 01:00:00 10,9 10,3 0 0 8 5 N 1018,2 0,1 0,0
25.05.2018 00:00:00 11,8 11,0 4 2 9 5 N 1017,9 2,7 0,0
24.05.2018 23:00:00 12,4 11,0 0 0 8 5 N 1018,1 4,1 0,0
24.05.2018 22:00:00 13,7 11,7 8 4 12 7 NNW 1017,8 4,3 0,0
24.05.2018 21:00:00 15,8 13,1 8 5 21 11 NE 1017,5 10 0,0
24.05.2018 20:00:00 16,4 13,3 11 6 20 11 NE 1017,2 9 0,0
24.05.2018 19:00:00 16,2 13,7 11 6 20 11 NNE 1017,2 6 0,0
24.05.2018 18:00:00 15,4 13,4 14 8 26 14 N 1017,4 3,7 0,0
24.05.2018 17:00:00 15,3 13,5 16 9 23 12 N 1017,4 3,3 0,0
24.05.2018 16:00:00 14,1 13,0 14 8 20 11 NW 1018,0 0,6 0,0
24.05.2018 15:00:00 15,4 13,6 12 7 17 9 WNW 1018,0 6 0,0
24.05.2018 14:00:00 14,6 12,8 11 6 15 8 WNW 1018,5 5 0,0
24.05.2018 13:00:00 13,5 12,1 9 5 17 9 NNW 1018,8 2,3 0,0
24.05.2018 12:00:00 14,1 12,1 9 5 19 10 WNW 1018,9 4,0 0,0
24.05.2018 11:00:00 16,7 13,0 7 4 16 8 W 1018,9 5 0,0
24.05.2018 10:00:00 14,8 13,5 4 2 9 5 E 1019,1 3,2 0,0
24.05.2018 09:00:00 13,1 12,5 7 4 10 6 ENE 1019,0 3,8 0,0
24.05.2018 08:00:00 12,4 11,9 2 1 14 8 ENE 1019,0 3,1 0,0
24.05.2018 07:00:00 11,8 11,3 11 6 15 8 NNE 1019,0 0,3 0,0
24.05.2018 06:00:00 11,8 11,3 7 4 14 8 N 1019,0 1,1 0,0
24.05.2018 05:00:00 12,0 11,5 6 3 9 5 NNE 1019,2 2,0 0,0
24.05.2018 04:00:00 12,2 11,7 4 2 5 3 N 1019,5 2,1 0,0
24.05.2018 03:00:00 11,9 11,4 5 3 10 5 NNE 1019,8 1,4 0,0
24.05.2018 02:00:00 12,0 11,4 5 3 11 6 NNE 1020,0 1,5 0,0
24.05.2018 01:00:00 12,0 11,4 11 6 16 9 NNE 1020,6 1,7 0,0
24.05.2018 00:00:00 11,9 11,0 11 6 16 9 N 1020,5 2,6 0,0
23.05.2018 23:00:00 12,3 11,2 5 3 18 10 NE 1020,7 4,4 0,0
23.05.2018 22:00:00 12,4 11,0 11 6 23 12 NE 1020,5 5 0,0
23.05.2018 21:00:00 12,9 10,6 19 10 38 20 NE 1020,3 10 0,0
23.05.2018 20:00:00 13,5 10,8 24 13 38 20 NE 1020,2 13 0,0
23.05.2018 19:00:00 13,3 11,4 21 11 32 18 NNE 1020,2 9 0,0
23.05.2018 18:00:00 13,1 11,0 18 10 32 17 NNE 1020,5 6 0,0
23.05.2018 17:00:00 12,8 10,7 20 11 29 15 NNE 1020,6 7 0,0
23.05.2018 16:00:00 12,3 10,4 18 10 32 17 NNE 1021,0 7 0,0
23.05.2018 15:00:00 12,0 9,9 20 11 30 16 NNE 1021,3 7 0,0
23.05.2018 14:00:00 12,2 9,9 22 12 36 19 NE 1021,7 8 0,0
23.05.2018 13:00:00 12,3 9,7 21 11 38 21 NNE 1021,7 10 0,0
23.05.2018 12:00:00 12,5 9,1 26 14 37 20 NNE 1021,5 11 0,0
23.05.2018 11:00:00 15,7 11,3 20 11 31 17 NNE 1021,0 8 0,0
23.05.2018 10:00:00 14,8 10,2 14 8 29 16 NNE 1020,7 7 0,0
23.05.2018 09:00:00 13,3 9,9 19 10 31 17 NE 1020,5 7 0,0
23.05.2018 08:00:00 12,1 9,8 16 9 35 19 NE 1020,4 9 0,0
23.05.2018 07:00:00 11,5 9,7 17 9 32 18 NE 1019,6 7 0,0
23.05.2018 06:00:00 11,4 9,6 20 11 35 19 NE 1019,2 8 0,0
23.05.2018 05:00:00 11,6 10,0 19 10 34 18 NNE 1018,9 8 0,0
23.05.2018 04:00:00 11,8 10,2 20 11 33 18 NNE 1018,7 9 0,0
23.05.2018 03:00:00 12,3 9,8 19 10 32 18 NNE 1018,7 13 0,0
23.05.2018 02:00:00 13,5 9,2 23 13 42 23 NE 1018,8 19 0,0
23.05.2018 01:00:00 13,3 9,0 22 12 38 21 NNE 1018,6 19 0,0
23.05.2018 00:00:00 13,2 9,3 12 7 22 12 N 1018,2 17 0,0
22.05.2018 23:00:00 12,6 10,0 9 5 13 7 N 1018,1 11 0,0
22.05.2018 22:00:00 12,4 9,4 8 5 21 11 NNE 1017,6 9 0,0
22.05.2018 21:00:00 13,7 10,7 14 7 18 10 N 1017,3 9 0,0
22.05.2018 20:00:00 14,7 10,3 13 7 20 11 NNW 1016,4 14 0,0
22.05.2018 19:00:00 14,9 11,3 15 8 27 14 NNW 1016,3 12 0,0
22.05.2018 18:00:00 15,5 11,1 19 10 29 16 N 1016,0 8 0,0
22.05.2018 17:00:00 15,2 11,6 21 11 33 18 N 1016,0 6 0,0
22.05.2018 16:00:00 15,3 11,7 23 12 32 18 NNW 1015,6 8 0,0
22.05.2018 15:00:00 15,5 12,4 22 12 28 15 NNW 1015,5 5 0,0
22.05.2018 14:00:00 16,1 12,3 21 11 27 15 NNW 1015,1 4,1 0,0
22.05.2018 13:00:00 13,9 11,6 16 9 21 11 NW 1015,2 6 0,2
22.05.2018 12:00:00 16,6 12,5 13 7 19 10 NNW 1014,8 10 0,0
22.05.2018 11:00:00 16,4 12,0 9 5 16 9 N 1014,7 10 0,0
22.05.2018 10:00:00 15,0 11,8 6 3 13 7 WNW 1014,6 12 0,0
22.05.2018 09:00:00 15,3 11,7 5 3 8 4 W 1014,3 13 0,0
22.05.2018 08:00:00 12,9 12,0 4 2 9 5 WNW 1014,2 4,1 0,0
22.05.2018 07:00:00 11,5 10,6 3 2 6 3 W 1013,8 2,5 0,0
22.05.2018 06:00:00 10,1 8,9 5 3 9 5 W 1013,7 2,5 0,2

tt = Température de l'air
td = dewpoint
ff = Vitesse du vent
fx = gusts
dd = Direction du vent
ppp = reduced air pressure
vv = visibility
rr = Quantités de précipitations

stations d'obs. à proximité